Home   Weather   Talcahuano   Past weeks

Flag for Chile Past Weather in Talcahuano, Chile — Yesterday and Last 2 Weeks

Now
55 °F

Scattered clouds.


Feels Like: 52 °F
Forecast: 51 / 54 °F
Wind: 13 mph from West

Location: Concepcion Airport

Current Time: Aug 18, 2017 at 5:29:19 pm

Latest Report: Aug 18, 2017 at 5:00 pm


Visibility: N/A

Pressure: 30.01 "Hg

Humidity: 72%

Dew Point: 46 °F

Location of TalcahuanoLocation

Past Weather in Talcahuano — Graph

°F

Talcahuano Temperature Yesterday

Maximum temperature yesterday: 54 °F (at 2:00 pm)
Minimum temperature yesterday: 43 °F (at 6:00 am)
Average temperature yesterday: 49 °F

High & Low Weather Summary for the Past Weeks

 TemperatureHumidityPressure
High57 °F (Aug 3, 4:00 pm)100% (Aug 5, 9:00 pm)30.33 "Hg (Aug 5, 9:00 pm)
Low37 °F (Aug 4, 6:00 am)55% (Aug 3, 5:00 pm)29.71 "Hg (Aug 9, 4:00 am)
Average50 °F88%30.09 "Hg
* Reported Aug 3 3:00 pm — Aug 18 4:02 pm, Talcahuano. Weather by CustomWeather, © 2017

Note: Actual official high and low records may vary slightly from our data, if they occured in-between our weather recording intervals... More about our weather records

Advertising

Talcahuano Weather History for the Previous 24 Hours

Scroll right to see more
 ConditionsComfort  
Time TempWeatherWind HumidityBarometerVisibility
4:02 pm
Fri, Aug 18
57 °FPassing clouds.12 mph67%30.01 "HgN/A
3:00 pm55 °FScattered clouds.13 mph67%30.01 "HgN/A
2:00 pm55 °FPartly sunny.10 mph77%30.01 "HgN/A
1:00 pm55 °FPartly sunny.10 mph82%30.01 "HgN/A
12:00 pm55 °FBroken clouds.5 mph88%29.98 "HgN/A
11:00 am54 °FMore clouds than sun.9 mph94%29.98 "HgN/A
10:00 am54 °FRain. More clouds than sun.10 mph94%29.95 "Hg1 mi
9:00 am52 °FRain. More clouds than sun.14 mph100%29.92 "Hg1 mi
8:00 am52 °FRain. Low clouds.16 mph100%29.92 "Hg3 mi
7:00 am52 °FRain. Low clouds.15 mph100%29.92 "Hg4 mi
6:00 am52 °FRain. Mostly cloudy.12 mph94%29.95 "Hg4 mi
5:00 am52 °FSprinkles. Passing clouds.13 mph94%29.98 "Hg5 mi
4:00 am52 °FRain showers. Mostly cloudy.9 mph94%29.98 "Hg4 mi
3:00 am52 °FSprinkles. Mostly cloudy.12 mph100%30.01 "HgN/A
2:00 am52 °FMostly cloudy.12 mph94%30.01 "HgN/A
1:00 am52 °FMostly cloudy.10 mph100%30.01 "HgN/A
12:00 am52 °FMostly cloudy.7 mph100%30.07 "HgN/A
11:00 pm
Thu, Aug 17
52 °FMostly cloudy.7 mph94%30.04 "HgN/A
10:00 pm52 °FPartly cloudy.5 mph94%30.04 "HgN/A
9:00 pm52 °FPartly cloudy.3 mph94%30.07 "HgN/A
8:00 pm52 °FPassing clouds.6 mph94%30.04 "HgN/A
7:00 pm52 °FPartly sunny.5 mph88%30.04 "HgN/A
6:00 pm54 °FPartly sunny.3 mph88%30.07 "HgN/A
5:00 pm54 °FBroken clouds.1 mph88%30.07 "HgN/A
Weather by CustomWeather, © 2017

See weather overviewHow to use our weather pages